Weather History for KBED - April, 2013

Change the Weather History Date:

Friday, April 26, 2013

  Actual Average Record
Temperature  
Mean Temperature 44 °F -  
Max Temperature 59 °F 61 °F 79 °F (1970)
Min Temperature 30 °F 37 °F 27 °F (1967)
Degree Days  
Heating Degree Days 22    
Moisture  
Dew Point 34 °F    
Average Humidity 64    
Maximum Humidity 96    
Minimum Humidity 37    
Precipitation  
Precipitation 0.00 in - - ()
Sea Level Pressure  
Sea Level Pressure 30.41 in    
Wind  
Wind Speed 5 mph (ESE)    
Max Wind Speed 16 mph    
Max Gust Speed 17 mph    
Visibility 10 miles    
Events      
Averages and records for this station are not official NWS values.
T = Trace of Precipitation, MM = Missing Value Source: NWS Daily Summary

Daily Weather History Graph

Daily Weather History Graph

Search for Another Location

Airport or City:

Trip Planner

Search our weather history database for the weather conditions in past years. The results will help you decide how hot, cold, wet, or windy it might be!

Date:

Astronomy

Apr. 26, 2013 Rise Set
Actual Time 5:46 AM EDT 7:39 PM EDT
Civil Twilight 5:16 AM EDT 8:09 PM EDT
Nautical Twilight 4:39 AM EDT 8:46 PM EDT
Astronomical Twilight 4:00 AM EDT 9:27 PM EDT
Moon 9:00 PM EDT (4/26) 6:10 AM EDT (4/26)
Length of Visible Light 14h 53m
Length of Day
13h 52m
Full, 99% of the Moon is Illuminated
Apr 26
Full
May 2
Last Quarter
May 9
New
May 18
First Quarter
May 25
Full

Hourly Weather History & Observations

Time (EDT) Temp. Windchill Dew Point Humidity Pressure Visibility Wind Dir Wind Speed Gust Speed Precip Events Conditions
12:56 AM 37.9 °F - 30.9 °F 76% 30.32 in 10.0 mi Calm Calm - N/A   Clear
1:56 AM 37.0 °F - 33.1 °F 86% 30.33 in 10.0 mi Calm Calm - N/A   Clear
2:56 AM 35.1 °F - 33.1 °F 92% 30.33 in 10.0 mi Calm Calm - N/A   Clear
3:56 AM 34.0 °F - 30.0 °F 85% 30.35 in 10.0 mi Calm Calm - N/A   Clear
4:56 AM 32.0 °F - 28.9 °F 88% 30.36 in 10.0 mi Calm Calm - N/A   Clear
5:56 AM 30.9 °F 25.2 °F 30.0 °F 96% 30.40 in 10.0 mi West 5.8 mph - N/A   Clear
6:56 AM 35.1 °F - 32.0 °F 89% 30.42 in 10.0 mi Calm Calm - N/A   Clear
7:56 AM 46.0 °F - 35.1 °F 66% 30.42 in 10.0 mi Calm Calm - N/A   Clear
8:56 AM 53.1 °F - 28.9 °F 40% 30.42 in 10.0 mi East 12.7 mph - N/A   Clear
9:56 AM 55.0 °F - 28.9 °F 37% 30.43 in 10.0 mi East 13.8 mph - N/A   Clear
10:56 AM 55.9 °F - 32.0 °F 40% 30.44 in 10.0 mi East 12.7 mph - N/A   Clear
11:56 AM 57.0 °F - 33.1 °F 40% 30.44 in 10.0 mi East 9.2 mph 17.3 mph N/A   Clear
12:56 PM 57.0 °F - 33.1 °F 40% 30.42 in 10.0 mi East 16.1 mph - N/A   Clear
1:56 PM 57.9 °F - 33.1 °F 39% 30.41 in 10.0 mi East 11.5 mph - N/A   Clear
2:56 PM 57.9 °F - 33.1 °F 39% 30.40 in 10.0 mi ESE 13.8 mph - N/A   Mostly Cloudy
3:56 PM 55.9 °F - 32.0 °F 40% 30.41 in 10.0 mi ESE 15.0 mph - N/A   Mostly Cloudy
4:56 PM 54.0 °F - 33.1 °F 45% 30.41 in 10.0 mi ESE 15.0 mph - N/A   Overcast
5:56 PM 53.1 °F - 33.1 °F 47% 30.42 in 10.0 mi ESE 13.8 mph - N/A   Mostly Cloudy
6:56 PM 50.0 °F - 35.1 °F 57% 30.43 in 10.0 mi SE 9.2 mph - N/A   Partly Cloudy
7:56 PM 46.9 °F - 39.0 °F 74% 30.45 in 10.0 mi East 9.2 mph - N/A   Mostly Cloudy
8:56 PM 45.0 °F 41.2 °F 39.0 °F 80% 30.46 in 10.0 mi East 6.9 mph - N/A   Mostly Cloudy
9:56 PM 45.0 °F 43.5 °F 39.9 °F 82% 30.47 in 10.0 mi East 3.5 mph - N/A   Overcast
10:56 PM 45.0 °F - 39.0 °F 80% 30.46 in 10.0 mi Calm Calm - N/A   Overcast
11:56 PM 43.0 °F - 39.9 °F 89% 30.45 in 10.0 mi Calm Calm - N/A   Mostly Cloudy